Location: Newark
(7.0858°N, 171.3717°E)
Time: 03:34:25
(UTC+00:00)

Vanguard 2 - Pass Details

Date: 29 November 2020
Orbit: 553 x 2937 km, 32.9° (Epoch: 26 January)

Event Time Altitude Azimuth Distance (km) Brightness Sun altitude
Rises 06:47:30 0° 287° (WNW) 3,501 11.8 -8.3°
Reaches altitude 10° 06:49:45 10° 279° (W) 2,785 11.4 -8.8°
Maximum altitude 06:56:14 43° 209° (SSW) 1,860 9.9 -10.3°
Drops below altitude 10° 07:06:51 10° 142° (SE) 4,495 11.3 -12.8°
Sets 07:11:34 0° 136° (SE) 5,884 11.8 -13.9°
